Regional Weather Roundup
Issued by NWS

Home | Current Version | Previous Version | Graphics & Text | Print | Product List | Glossary On
Versions: 1 2 3 4 5 6 7 8 9 10 11 12 13 14 15 16 17 18 19 20 21 22 23 24 25 26 27 28 29 30 31 32 33 34 35 36 37 38 39 40 41 42 43 44 45 46 47 48 49 50
000
ASUS43 KFSD 300402
RWRSD

WEATHER ROUNDUP FOR SOUTH DAKOTA
NATIONAL WEATHER SERVICE SIOUX FALLS SD
1100 PM CDT TUE JUL 29 2014

NOTE: "FAIR" INDICATES FEW OR NO CLOUDS BELOW 12,000 FEET WITH NO
SIGNIFICANT WEATHER AND/OR OBSTRUCTIONS TO VISIBILITY.


SDZ001>005-009-010-012>017-300500-
NORTHWEST AND NORTH CENTRAL SOUTH DAKOTA

CITY           SKY/WX    TMP DP  RH WIND       PRES   REMARKS
BUFFALO          N/A     69  51  52 W6        30.12R
FAITH            N/A     68  53  58 SE10      30.17R
MOBRIDGE       MOCLDY    66  56  70 SE5       30.13R
$$

SDZ012>016-024>037-041>051-057-063-072>074-300500-
SOUTHWEST AND SOUTH CENTRAL SOUTH DAKOTA

CITY           SKY/WX    TMP DP  RH WIND       PRES   REMARKS
RAPID CTY ARPT PTCLDY    62  55  77 SW6       30.22R
PIERRE         PTCLDY    64  54  69 NE3       30.14R
CUSTER         MOCLDY    53  45  74 W3        30.34R
ELLSWORTH AFB  CLEAR     62  55  78 SW6       30.21S
PHILIP         CLEAR     67  49  52 SW5       30.17R
PINE RIDGE     MOCLDY    57  53  86 E6        30.23R
WINNER         FAIR      70  50  49 S5        30.16R
$$

SDZ004>011-016>023-039-040-300500-
NORTHEAST SOUTH DAKOTA

CITY           SKY/WX    TMP DP  RH WIND       PRES   REMARKS
ABERDEEN       CLEAR     57  54  89 CALM      30.14R
WATERTOWN      CLEAR     62  53  72 CALM      30.14R
SISSETON         N/A     57  55  93 CALM      30.11R
$$

SDZ017-020-022-023-036>040-048>070-300500-
SOUTHEAST SOUTH DAKOTA

CITY           SKY/WX    TMP DP  RH WIND       PRES   REMARKS
SIOUX FALLS    CLEAR     61  54  77 CALM      30.14R
HURON          CLEAR     60  54  80 CALM      30.13R
CHAMBERLAIN    PTCLDY    65  52  62 E3        30.15R
MITCHELL       CLEAR     65  54  67 CALM      30.14R
YANKTON        CLEAR     64  55  72 CALM      30.14S
$$

ABBREVIATIONS USED IN REMARKS
   TC - TEMPERATURE IN CELSIUS
  WCI - WIND CHILL INDEX
   HX - HEAT INDEX
  VSB - VISIBILITY




USA.gov is the U.S. government's official web portal to all federal, state and local government web resources and services.